Vientiane, Lao Peoples Republic

8:14 AM +07 on March 26, 2017 (GMT +0700)
Wattay International

Weather History for VLVT - August, 2013

Change the Weather History Date:

Wednesday, August 28, 2013

  Actual Average Record
Temperature  
Mean Temperature 84 °F -  
Max Temperature 93 °F 82 °F 93 °F (1998)
Min Temperature 75 °F 75 °F 75 °F (1999)
Cooling Degree Days 19    
Growing Degree Days 34 (Base 50)    
Moisture  
Dew Point 77 °F    
Average Humidity 75    
Maximum Humidity 94    
Minimum Humidity 52    
Precipitation  
Precipitation 0.00 in 0.39 in - ()
Sea Level Pressure  
Sea Level Pressure 29.68 in    
Wind  
Wind Speed 2 mph ()    
Max Wind Speed 5 mph    
Max Gust Speed -    
Visibility 5.1 miles    
Events      
Averages and records for this station are not official NWS values.
T = Trace of Precipitation, MM = Missing Value Source: Averaged Metar Reports

Daily Weather History Graph

Daily Weather History Graph

Search for Another Location

Airport or City:

Trip Planner

Search our weather history database for the weather conditions in past years. The results will help you decide how hot, cold, wet, or windy it might be!

Date:

Astronomy

Aug. 28, 2013 Rise Set
Actual Time 5:54 AM +07 6:26 PM +07
Civil Twilight 5:32 AM +07 6:49 PM +07
Nautical Twilight 5:06 AM +07 7:15 PM +07
Astronomical Twilight 4:40 AM +07 7:41 PM +07
Moon 11:45 PM +07 (8/28) 12:13 PM +07 (8/28)
Length of Visible Light 13h 16m
Length of Day
12h 32m
Waning Gibbous, 52% of the Moon is Illuminated
Aug 28
Waning Gibbous
Aug 28
Last Quarter
Sep 5
New
Sep 13
First Quarter
Sep 19
Full

Hourly Weather History & Observations

Time (+07) Temp. Heat Index Dew Point Humidity Pressure Visibility Wind Dir Wind Speed Gust Speed Precip Events Conditions
1:00 AM 77 °F - 75 °F 91% 29.70 in 2 mi South 2.2 mph - -   Scattered Clouds
4:00 AM 76 °F - 74 °F 92% 29.68 in 2 mi East 2.2 mph - -   Mist
6:30 AM 77.0 °F - 75.2 °F 94% 29.71 in 6.2 mi North 2.3 mph - N/A   Partly Cloudy
7:00 AM 76 °F - 74 °F 91% 29.69 in 6 mi North 2.2 mph - -   Scattered Clouds
7:00 AM 75.2 °F - 73.4 °F 94% 29.71 in 6.2 mi North 2.3 mph - N/A   Partly Cloudy
7:30 AM 75.2 °F - 73.4 °F 94% 29.71 in 6.2 mi North 2.3 mph - N/A   Partly Cloudy
8:00 AM 78.8 °F - 75.2 °F 89% 29.71 in 6.2 mi East 2.3 mph - N/A   Partly Cloudy
8:30 AM 78.8 °F - 75.2 °F 89% 29.71 in 6.2 mi East 2.3 mph - N/A   Partly Cloudy
9:00 AM 80.6 °F 86.2 °F 75.2 °F 84% 29.71 in 6.2 mi South 2.3 mph - N/A   Partly Cloudy
9:30 AM 82.4 °F 89.5 °F 75.2 °F 79% 29.77 in 6.2 mi South 2.3 mph - N/A   Partly Cloudy
10:00 AM 85 °F - 77 °F 72% 29.73 in 9 mi West 2.2 mph - -   Scattered Clouds
10:00 AM 86.0 °F 96.9 °F 77.0 °F 74% 29.77 in 6.2 mi West 2.3 mph - N/A   Partly Cloudy
10:30 AM 86.0 °F 96.9 °F 77.0 °F 74% 29.77 in 6.2 mi West 2.3 mph - N/A   Partly Cloudy
11:00 AM 86.0 °F 96.9 °F 77.0 °F 74% 29.74 in 6.2 mi South 2.3 mph - N/A   Scattered Clouds
11:30 AM 86.0 °F 96.9 °F 77.0 °F 74% 29.74 in 6.2 mi South 2.3 mph - N/A   Scattered Clouds
1:00 PM 89.6 °F 102.2 °F 77.0 °F 66% 29.71 in 6.2 mi West 2.3 mph - N/A   Scattered Clouds
1:30 PM 89.6 °F 102.2 °F 77.0 °F 66% 29.71 in 6.2 mi West 2.3 mph - N/A   Scattered Clouds
2:00 PM 91.4 °F 102.5 °F 75.2 °F 59% 29.68 in 6.2 mi South 2.3 mph - N/A   Scattered Clouds
2:30 PM 91.4 °F 102.5 °F 75.2 °F 59% 29.68 in 6.2 mi South 2.3 mph - N/A   Scattered Clouds
3:00 PM 93.2 °F 107.2 °F 77.0 °F 59% 29.62 in 6.2 mi SW 2.3 mph - N/A   Scattered Clouds
3:30 PM 93.2 °F 107.2 °F 77.0 °F 59% 29.62 in 6.2 mi SW 2.3 mph - N/A   Scattered Clouds
4:00 PM 94 °F - 78 °F 52% 29.57 in 9 mi SW 2.2 mph - -   Partly Cloudy
4:00 PM 93.2 °F 110.2 °F 78.8 °F 63% 29.62 in 6.2 mi SW 2.3 mph - N/A   Scattered Clouds
4:30 PM 93.2 °F 110.2 °F 78.8 °F 63% 29.62 in 6.2 mi SW 2.3 mph - N/A   Scattered Clouds
5:00 PM 93.2 °F 110.2 °F 78.8 °F 63% 29.62 in 6.2 mi South 2.3 mph - N/A   Scattered Clouds
5:30 PM 93.2 °F 110.2 °F 78.8 °F 63% 29.62 in 6.2 mi South 2.3 mph - N/A   Scattered Clouds
6:00 PM 91.4 °F 105.1 °F 77.0 °F 63% 29.65 in 6.2 mi ESE 2.3 mph - N/A   Scattered Clouds
6:30 PM 91.4 °F 105.1 °F 77.0 °F 63% 29.65 in 6.2 mi South 2.3 mph - N/A   Scattered Clouds
7:00 PM 89 °F - 80 °F 68% 29.62 in 2 mi SE 2.2 mph - -   Scattered Clouds
7:00 PM 89.6 °F 104.7 °F 78.8 °F 70% 29.65 in 1.9 mi SE 2.3 mph - N/A   Scattered Clouds
7:30 PM 89.6 °F 104.7 °F 78.8 °F 70% 29.65 in 1.9 mi ESE 2.3 mph - N/A   Scattered Clouds
8:00 PM 87.8 °F 102.5 °F 78.8 °F 75% 29.68 in 1.9 mi South 4.6 mph - N/A   Scattered Clouds
8:30 PM 87.8 °F 102.5 °F 78.8 °F 75% 29.68 in 1.9 mi SE 4.6 mph - N/A   Scattered Clouds
9:00 PM 86.0 °F 101.9 °F 80.6 °F 84% 29.68 in 1.9 mi SW 2.3 mph - N/A   Scattered Clouds
9:30 PM 86.0 °F 101.9 °F 80.6 °F 84% 29.68 in 1.9 mi SSW 2.3 mph - N/A   Partly Cloudy
10:00 PM 86.0 °F 101.9 °F 80.6 °F 84% 29.68 in 1.9 mi South 2.3 mph - N/A   Partly Cloudy
10:30 PM 84.2 °F 98.3 °F 80.6 °F 89% 29.68 in 1.9 mi SW 2.3 mph - N/A   Partly Cloudy